Weather in Palembang

Indonesia     2°57′54″S   104°44′47″E
temp.,
°C
wind,
m/s
gust,
m/s
humid.,
%
clouds,
%
prec.,
mm/h
press.,
hPa
HPBL,
m
8 may, sat
sat801:00+24w009466 0.1 101011
04:00+24sse119681 0.8 100813
07:00+24s1294100 0.8 101092
10:00+29ssw227499 0.0 1010795
13:00+33sw115826 0.1 10071497
16:00+32nnw116035 0.0 1006958
19:00+26ese258744 1.3 100884
22:00+25ene2392100 0.1 101071
9 may, sun
sun901:00+24e229688 1.1 100943
04:00+24se119640 1.9 100814
07:00+25sse119345 2.4 101085
10:00+29ssw1177100 0.6 1010618
13:00+32ne116296 1.1 10071255
16:00+31ese116632 0.3 1005906
19:00+27e228384 0.7 100717
22:00+26e269282 0.2 1009170
10 may, mon
mon1001:00+25e249092 0.3 1008133
04:00+25se249285 0.0 1007147
07:00+25se139269 0.0 1009161
10:00+30se236827 0.0 10091043
13:00+34se225267 0.2 10051938
16:00+30ese2272100 0.1 100463
19:00+27e248367 0.5 100793
22:00+26e25895 0.0 1009111
11 may, tue
tue1101:00+25ese12935 0.0 100830
04:00+24s11965 0.0 100728
07:00+25se139335 0.0 1009147
10:00+31se236820 0.1 10091152
13:00+33ese235491 0.3 10051730
16:00+31e347137 0.4 1004468
19:00+26se378785 2.1 1007129
22:00+25ese2795100 0.4 1009198
12 may, wed
wed1201:00+25se2395100 0.7 100891
04:00+24sse129672 0.0 100744
07:00+25s139355 0.0 1008137
10:00+30sse237060 0.0 1009990
13:00+33ssw125299 0.3 10051919
16:00+29nne2483100 1.5 1005135
19:00+26ne2290100 2.3 100734
22:00+25ese1191100 0.1 100914